This demonstration page uses our WeatherBlox Daily Observations layout. Learn more.

Left ArrowRight Arrow

36.17497, -115.13722

Hourly Observations for September 8, 2016

Temp ( °F °C ) Dew Point ( °F °C ) Humidity (%) Winds ( mph kmh ) Pressure ( in mb ) Visibility ( mi km ) Precip ( " mm )
12:53 am 00:53 Clear 79 26.1 51 10.6 38 38 ENE 5 7 29.95 1014 10 16.0934 0 0
1:53 am 01:53 Clear 77 25 52 11.1 42 42 N 3 6 29.96 1014 10 16.0934 0 0
2:53 am 02:53 Clear 76 24.4 52 11.1 43 43 NNW 6 9 29.96 1015 10 16.0934 0 0
3:53 am 03:53 Clear 75 23.9 53 11.7 46 46 N 6 9 29.96 1015 10 16.0934 0 0
4:53 am 04:53 Clear 74 23.3 52 11.1 46 46 N 7 11 29.97 1015 10 16.0934 0 0
5:53 am 05:53 Clear 74 23.3 50 10 43 43 N 7 11 29.99 1016 10 16.0934 0 0
6:53 am 06:53 Sunny 74 23.3 53 11.7 48 48 N 6 9 30.02 1017 10 16.0934 0 0
7:53 am 07:53 Sunny 78 25.6 57 13.9 48 48 NNE 6 9 30.04 1017 10 16.0934 0 0
8:53 am 08:53 Sunny 81 27.2 54 12.2 39 39 ESE 6 9 30.05 1018 10 16.0934 0 0
9:53 am 09:53 Sunny 84 28.9 53 11.7 34 34 SSE 5 7 30.05 1018 10 16.0934 0 0
10:53 am 10:53 Sunny 86 30 53 11.7 32 32 ESE 6 9 30.04 1017 10 16.0934 0 0
11:53 am 11:53 Sunny 89 31.7 52 11.1 28 28 undefined N/A 30.01 1016 10 16.0934 0 0
12:53 pm 12:53 Sunny 92 33.3 49 9.4 23 23 ESE 6 9 29.98 1015 10 16.0934 0 0
1:53 pm 13:53 Sunny 94 34.4 47 8.3 20 20 SSW 6 9 29.95 1014 10 16.0934 0 0
2:53 pm 14:53 Sunny 97 36.1 43 6.1 16 16 E 5 7 29.91 1013 10 16.0934 0 0
3:53 pm 15:53 Sunny 97 36.1 35 1.7 11 11 ESE 6 9 29.89 1012 10 16.0934 0 0
4:53 pm 16:53 Sunny 98 36.7 35 1.7 11 11 SE 6 9 29.87 1012 10 16.0934 0 0
5:53 pm 17:53 Sunny 98 36.7 34 1.1 11 11 S 13 20 29.86 1011 10 16.0934 0 0
6:53 pm 18:53 Sunny 97 36 36 2 12 12 SW 7 11 29.68 1005 10 16.0934 0 0
7:53 pm 19:53 Clear 93 33.9 35 1.7 13 13 WSW 9 15 29.88 1012 10 16.0934 0 0
8:53 pm 20:53 Clear 92 33.3 34 1.1 13 13 WSW 8 13 29.88 1012 10 16.0934 0 0
9:53 pm 21:53 Clear 89 31.7 34 1.1 14 14 N 3 6 29.88 1012 10 16.0934 0 0
10:53 pm 22:53 Clear 83 28.3 44 6.7 25 25 N 9 15 29.9 1012 10 16.0934 0 0
11:53 pm 23:53 Clear 84 28.9 38 3.3 19 19 NNE 6 9 29.9 1013 10 16.0934 0 0

Powered by AerisWeather